Content
SEND FEEDBACK

Daily
Averages
Monthly
Summary
United States of America

CHARLOTTESVILLE, VIRGINIA


Home > North America > United States > Virginia
Elevation: 634 feet     Latitude: 38 08N     Longitude: 078 27W

WEATHER
 
SELECT A DAY
Number of Records: 189,156;   Date Range: 1/1/95 - 7/23/14
 
SHARE

PRINT THIS DATA

[ ← Previous Day ]
WEATHER ALMANAC - FEBRUARY 13, 2013
[ Next Day → ]
[ °C ]   °F
Weather ElementAverageHighLow
Temperature37.4 °F43 °F (12:53 pm)33.1 °F (9:53 pm)
Dewpoint31.9 °F36 °F (5:53 pm)24.1 °F (1:53 am)
Humidity82.3 %100 % (7:06 pm)51 % (1:53 am)
Barometer29.73 in29.88 in (1:53 am)29.64 in (5:05 pm)
Wind Speed3.1 mph9.2 mph (5:53 am)
Weather ElementAverage
Visibility5.2 mi
Wind DirectionENE (61.1 °)

Weather ElementTotal
Precipitation0.11 in
Heating Degree Days27 (Base 65)
Averaged from 44 records on February 13, 2013
WEATHER CONDITIONS BREAKOUT
WIND DIRECTION BREAKOUT
WEATHER BY HOUR - FEBRUARY 13, 2013
[ °C ]   °F
Local TimeTemperatureDewpointHumidityBarometerVisibilityWind DirectionWind SpeedGust SpeedPrecipitationEventsConditions
1:53 AM41.0 °F24.1 °F51 %29.88 in10.0 miNNE (30°)4.6 mphClear
2:53 AM39.9 °F25.0 °F55 %29.86 in10.0 miNNE (20°)4.6 mphOvercast
3:53 AM41.0 °F24.1 °F51 %29.86 in10.0 miNE (40°)5.8 mphOvercast
4:53 AM39.9 °F25.0 °F55 %29.86 in10.0 miENE (60°)5.8 mphOvercast
5:53 AM37.9 °F26.1 °F62 %29.84 in10.0 miNE (40°)9.2 mphOvercast
6:53 AM37.0 °F26.1 °F65 %29.85 in10.0 miNE (50°)5.8 mphMostly Cloudy
7:53 AM37.9 °F26.1 °F62 %29.85 in10.0 miNNE (20°)5.8 mphOvercast
8:53 AM39.0 °F26.1 °F60 %29.84 in10.0 miNE (40°)9.2 mphOvercast
9:53 AM41.0 °F26.1 °F55 %29.83 in10.0 miNNE (30°)6.9 mphOvercast
10:53 AM42.1 °F26.1 °F53 %29.81 in10.0 miNE (50°)4.6 mphOvercast
11:53 AM42.1 °F27.0 °F55 %29.77 in10.0 miNE (50°)3.5 mphOvercast
12:53 PM43.0 °F28.0 °F56 %29.72 in10.0 miNE (50°)3.5 mphOvercast
1:53 PM39.9 °F30.9 °F70 %29.68 in5.0 miNE (50°)3.5 mph0.00 inHaze
2:22 PM39.2 °F30.2 °F70 %29.66 in10.0 miNorth (10°)4.6 mphOvercast
2:53 PM39.9 °F32.0 °F73 %29.65 in10.0 miNE (40°)4.6 mphOvercast
3:32 PM37.4 °F33.8 °F87 %29.66 in2.0 miCalm0.01 inRainLight Rain
3:53 PM37.9 °F34.0 °F86 %29.66 in2.0 miNNE (30°)4.6 mph0.01 inRainLight Rain
4:00 PM37.4 °F35.6 °F93 %29.65 in4.0 miNE (40°)3.5 mph0.00 inOvercast
4:09 PM37.4 °F35.6 °F93 %29.65 in2.5 miENE (70°)3.5 mph0.00 inRainLight Rain
4:29 PM37.4 °F35.6 °F93 %29.65 in2.0 miENE (70°)4.6 mph0.00 inOvercast
4:53 PM37.0 °F35.1 °F93 %29.65 in3.0 miEast (90°)3.5 mph0.00 inOvercast
5:05 PM37.4 °F35.6 °F93 %29.64 in2.0 miCalmOvercast
5:14 PM37.4 °F35.6 °F93 %29.64 in1.8 miNE (40°)3.5 mph0.01 inOvercast
5:51 PM37.4 °F35.6 °F93 %29.65 in2.0 miCalm0.01 inOvercast
5:53 PM37.0 °F36.0 °F96 %29.66 in2.0 miCalm0.01 inOvercast
6:08 PM37.4 °F35.6 °F93 %29.66 in2.0 miCalmOvercast
6:17 PM37.4 °F35.6 °F93 %29.66 in2.0 miCalmOvercast
6:24 PM37.4 °F35.6 °F93 %29.66 in1.8 miNNW (340°)3.5 mphOvercast
6:32 PM37.4 °F35.6 °F93 %29.67 in2.0 miNorth (350°)3.5 mphOvercast
6:53 PM36.0 °F35.1 °F97 %29.68 in2.0 miNorth (360°)4.6 mph0.00 inRainLight Rain
7:06 PM35.6 °F35.6 °F100 %29.68 in2.0 miNorth (350°)4.6 mph0.01 inRainLight Rain
7:47 PM35.6 °F33.8 °F93 %29.71 in3.0 miCalm0.02 inRainLight Rain
7:53 PM36.0 °F35.1 °F97 %29.71 in3.0 miNNE (30°)3.5 mph0.02 inRainLight Rain
8:03 PM35.6 °F33.8 °F93 %29.70 in3.0 miNNE (30°)4.6 mph0.00 inRainLight Rain
8:34 PM35.6 °F33.8 °F93 %29.71 in2.5 miCalm0.00 inOvercast
8:53 PM35.1 °F33.1 °F92 %29.73 in2.5 miCalm0.00 inOvercast
9:31 PM33.8 °F32.0 °F93 %29.74 in1.8 miCalmPartly Cloudy
9:39 PM33.8 °F33.8 °F100 %29.74 in2.0 miCalmClear
9:48 PM33.8 °F33.8 °F100 %29.75 in1.5 miCalmPartly Cloudy
9:53 PM33.1 °F33.1 °F100 %29.75 in1.8 miCalmScattered Clouds
10:23 PM33.8 °F33.8 °F100 %29.75 in2.5 miCalmScattered Clouds
10:31 PM33.8 °F33.8 °F100 %29.75 in5.0 miCalmPartly Cloudy
10:53 PM36.0 °F33.1 °F89 %29.77 in10.0 miCalmMostly Cloudy
11:53 PM34.0 °F30.9 °F89 %29.79 in9.0 miNW (310°)5.8 mph0.01 inClear
Hourly data recorded from KCHO, located miles away from Charlottesville, Virginia







STORIES FROM OUR PARTNERS